Other Public Products
Issued by NWS Grand Forks, ND

Home | Current Version | Previous Version | Text Only | Print | Product List | Glossary On
Versions: 1 2 3 4 5 6 7 8 9 10 11 12 13 14 15 16 17 18 19 20 21 22 23 24 25 26 27 28 29 30 31 32 33 34 35 36 37 38 39 40 41 42 43 44 45 46 47 48 49 50
000
FPUS83 KFGF 290331
OPUFGF
PRAIRIE TO PINES WEATHER ROUNDUP
NATIONAL WEATHER SERVICE EASTERN NORTH DAKOTA/GRAND FORKS ND
1000 PM CDT THU MAY 28 2015

 **SATELLITE DATA USED TO AUGMENT SKY COVER AT AUTOMATED STATIONS**
 *****  WEATHER ACROSS EASTERN NORTH DAKOTA  *****

CITY           SKY/WX    TMP DP  RH WIND       PRES   REMARKS
GRAND FORKS    MOCLDY    62  60  93 N9        29.81R
GRAND FORKS AF MOCLDY    63  60  91 N6        29.83R
GRAND CITY NWS   N/A     63 N/A N/A VRB6        N/A
BUXTON           N/A     67  65  96 N6          N/A
DEVILS LAKE    MOCLDY    64  54  68 N17       29.88R
FARGO          LGT RAIN  65  61  87 SE6       29.81R
WAHPETON ARPT  CLOUDY    61  59  94 CALM      29.87S
$$

 *****  WEATHER ACROSS CENTRAL AND WESTERN NORTH DAKOTA  *****

CITY           SKY/WX    TMP DP  RH WIND       PRES   REMARKS
JAMESTOWN      CLOUDY    68  60  75 N9        29.84R
BISMARCK       CLOUDY    69  56  62 N9        29.89R
MINOT          MOCLDY    56  49  77 NW26G32   29.97R
MINOT AFB      PTCLDY    57  57  99 N21G26    29.96R
GARRISON         N/A     63  55  75 N8        29.92R
WILLISTON      MOCLDY    56  46  69 N22G36    30.05R
DICKINSON      CLOUDY    62  56  80 N7        29.97R
HETTINGER      LGT RAIN  55  50  83 W3        29.96R
$$

 *****  OTHER OBSERVATIONS NORTHEAST NORTH DAKOTA  *****

CITY           SKY/WX    TMP DP  RH WIND       PRES   REMARKS
WALHALLA         N/A     59  59 100 MISG      29.89R
LANGDON        FAIR      59  57  94 N10       29.89S
CAVALIER       NOT AVBL
GRAFTON        CLOUDY    63  63 100 N12       29.86R
CANDO          CLOUDY    63  55  77 N7        29.91R
FORT TOTTEN    NOT AVBL
ROLLA          MOCLDY    55  55 100 NW22      29.94R
RUGBY          NOT AVBL
 ***** THE ABOVE OBSERVATIONS ARE NON NWS ARE NOT QUALITY
        CONTROLLED AND MAY MIS-REPORT RAIN FOR SNOW...
$$

 *****  OTHER OBSERVATIONS SOUTHEAST NORTH DAKOTA *****

CITY           SKY/WX    TMP DP  RH WIND       PRES   REMARKS
COOPERSTOWN    NOT AVBL
VALLEY CITY    CLOUDY    64  64 100 SE6       29.84R
OAKES          RAIN      61  61 100 NE10      29.87R
GWINNER        NOT AVBL
SHEYENNE NWR     N/A     62  61  96 SE7       29.95S
BUFFALO        NOT AVBL
WYNDMERE         N/A     63  64 100 SE9         N/A
 ***** THE ABOVE OBSERVATIONS ARE NON NWS ARE NOT QUALITY
       CONTROLLED AND MAY MIS-REPORT RAIN FOR SNOW...
$$

  *****  WEATHER ACROSS NORTHERN MINNESOTA  *****

CITY           SKY/WX    TMP DP  RH WIND       PRES   REMARKS
FLAG ISLAND    RAIN      59  57  94 NW7       29.83R
WARROAD        CLOUDY    61  57  88 W3        29.84R
ROSEAU         CLOUDY    63  57  82 CALM      29.84R
HALLOCK        CLOUDY    63  61  94 N14G20    29.86R FOG
THF RVR FALLS  CLOUDY    64  63  94 CALM      29.84R
HALSTAD          N/A     63  61  93 SE6         N/A
FOSSTON        RAIN      61  59  94 CALM      29.86R
BAUDETTE       CLOUDY    60  58  92 S6        29.81F
WASKISH        LGT RAIN  61  59  94 CALM      29.86R
CROOKSTON      CLOUDY    66  63  88 SE3       29.83R
$$
  *****  WEATHER ACROSS CENTRAL AND WEST MINNESOTA  *****

CITY           SKY/WX    TMP DP  RH WIND       PRES   REMARKS
BEMIDJI        RAIN      62  60  93 S16       29.85S
PARK RAPIDS    LGT RAIN  63  59  87 NW7       29.88S FOG
WADENA         CLOUDY    66  59  77 N12       29.86S
DETROIT LAKES  RAIN      63  61  94 S7        29.89R
MOORHEAD       LGT RAIN  64  61  88 S8        29.83S
FERGUS FALLS   TSTM      63  63 100 NW17      29.89R
ELBOW LAKE     CLOUDY    65  58  76 N13G20    29.87R
MORRIS MN      MOCLDY    73  57  56 S16       29.84R
STAPLES        MOCLDY    72  48  43 W7        29.87R
WHEATON        RAIN      63  57  82 N13       29.91R
$$
  *****  WEATHER ELSEWHERE ACROSS MINNESOTA  *****

CITY           SKY/WX    TMP DP  RH WIND       PRES   REMARKS
DULUTH         CLOUDY    45  42  89 SE7       29.95R FOG
INTRNTL FALLS  RAIN      59  58  96 E5        29.87S FOG
ELY            NOT AVBL
CLOQUET        CLOUDY    43  43 100 E7        29.95R FOG
BRAINERD       MOCLDY    70  52  52 S9        29.87R
HIBBING        CLOUDY    58  48  69 SE7       29.90R
ALEXANDRIA     MOCLDY    74  55  51 S20G26    29.86R
SAINT CLOUD    MOCLDY    70  53  54 S9        29.89R
MINNEAPOLIS    CLOUDY    76  52  43 S13       29.93R
$$

  *****  WEATHER ACROSS SOUTH DAKOTA  *****

CITY           SKY/WX    TMP DP  RH WIND       PRES   REMARKS
SIOUX FALLS    CLOUDY    67  59  75 S13       29.89R
BROOKINGS      CLOUDY    66  55  68 S12       29.89R
WATERTOWN      MOCLDY    70  57  63 S12       29.86R
HURON            N/A    N/A N/A N/A MISG      29.82R
SISSETON         N/A     64  63  96 NE17G29   29.84R
ABERDEEN       CLOUDY    64  60  87 NE13      29.88R
MITCHELL       CLOUDY    73  63  70 S10       29.83S
PIERRE         CLOUDY    61  58  90 S6        29.86R
MOBRIDGE       CLOUDY    64  62  93 NW10      29.82F
RAPID CITY     CLOUDY    56  52  86 W9        29.96R
$$

  *****  SOME WEATHER IN NEARBY STATES *****

CITY           SKY/WX    TMP DP  RH WIND       PRES   REMARKS
GLASGOW MT     CLOUDY    54  44  69 N17       30.15R
GREAT FALLS MT LGT RAIN  46  45  96 N14       30.29S FOG
CHEYENNE WY    CLOUDY    56  37  49 N6        30.12R
SCOTTSBLUFF NE LGT RAIN  56  52  86 NE12      30.05R
OMAHA NE       CLOUDY    69  64  84 SE9       29.94R
DES MOINES IA  CLOUDY    68  64  87 SE9       29.97S
DAVENPORT IA   PTCLDY    70  58  65 W10       30.03S
CHICAGO IL     MOCLDY    69  54  58 E7        30.08S
EAU CLAIRE WI  MOCLDY    72  53  51 S8        29.96R
LA CROSSE WI   PTCLDY    74  54  49 S7        29.97R
$$

  *****  SOME NATIONAL WEATHER *****

CITY           SKY/WX    TMP DP  RH WIND       PRES   REMARKS
LA GUARDIA NY  MOCLDY    75  54  47 N12       30.21R
RALEIGH NC     LGT RAIN  74  69  85 SW9       30.22R
ATLANTA GA     LGT RAIN  70  66  87 E6        30.22R
NEW ORLEANS LA PTCLDY    79  72  79 SE9       30.07R
OKLAHOMA CITY  TSTM      69  59  70 SW10G22   29.95R
ALBUQUERQUE NM PTCLDY    76  22  13 NW9       30.01R
SALT LAKE CITY PTCLDY    64  45  49 N8        30.10R
LOS ANGELES CA CLOUDY    59  55  88 W9        29.94R
BOISE ID       CLEAR     74  41  30 W7        30.02S
SEATTLE WA     PTCLDY    78  50  37 N8        30.00S
$$

*** WEATHER ACROSS MANITOBA...SASKATCHEWAN AND ONTARIO ***
                ***ONTARIO***

CITY           SKY/WX    TMP DP  RH WIND       PRES   REMARKS
GERALDTON      MOCLDY    54  50  87 S6        29.94F
THUNDER BAY    CLOUDY    46  46 100 E6        29.96F FOG
SIOUX LOOKOUT  LGT RAIN  55  54  94 CALM      29.87S FOG
TORONTO        MOCLDY    68  54  60 SE3       30.26S
BIG TROUT LK   LGT RAIN  43  39  87 SE9       30.05S
PICKLE LAKE    NOT AVBL
DRYDEN         LGT RAIN  57  55  94 CALM      29.85F FOG
KENORA         TSTM      57  57 100 VRB2      29.85R FOG
$$
                *** MANITOBA***

CITY           SKY/WX    TMP DP  RH WIND       PRES   REMARKS
BRANDON        CLOUDY    52  43  71 N24       30.03R
DAUPHIN        CLOUDY    46  43  87 N16G22    30.10R
ISLAND LAKE    LGT RAIN  43  41  93 NE12G21   29.92R
PILOT MOUND      N/A     54  50  87 N23G30      N/A
THE PAS        MOCLDY    41  34  75 N15G23    30.21R
THOMPSON       FLURRIES  30  27  86 NE15G24   30.25R WCI  19
WINNIPEG       MOCLDY    55  55 100 N7        29.90R
LYNN LAKE      FLURRIES  32  27  80 N9G17     30.34R WCI  24
CHURCHILL      CLOUDY    28  23  80 NE10      30.41R WCI  19
GILLAM         FRZ DRZL  28  27  93 NE17G26   30.24R VSB 3/4 WCI  16
$$
                ***SASKATCHEWAN***

CITY           SKY/WX    TMP DP  RH WIND       PRES   REMARKS
ESTEVAN        CLOUDY    48  43  81 N22G30    30.09R
KINDERSLEY     CLEAR     48  30  49 N8        30.29R
LLOYDMINSTER   CLEAR     46  28  49 N8        30.32R
PRINCE ALBERT  PTCLDY    43  28  56 N12G21    30.30R
REGINA         PTCLDY    46  34  61 N14G26    30.20R


USA.gov is the U.S. government's official web portal to all federal, state and local government web resources and services.